Simultaneous Nadir Overpasses (SNOs) Predictions

Prediction of SNOs between GOES-16 and METOP-B Satellite Orbit:

Table of predicted SNOs for the next 14.0 days since TLE Epoch: 1/29/2022
Index Date Time (GOES-16) GOES-16 Lat,Lon METOP-B Lat,Lon Distance(km) Time Diff (sec)
1 01/31/2022 14:28:14 0.00, -75.21 -0.12, -74.77 50.93 80
2 02/02/2022 02:49:55 -0.01, -75.20 -0.93, -79.37 474.93 80
3 02/03/2022 02:26:35 -0.01, -75.20 0.17, -74.37 94.60 80
4 02/04/2022 14:48:06 0.02, -75.23 0.85, -78.93 421.40 80
5 02/05/2022 14:24:47 0.02, -75.25 -0.25, -73.94 148.62 80
6 02/07/2022 02:46:28 -0.02, -75.24 -0.74, -78.55 375.78 80
7 02/08/2022 02:23:09 -0.02, -75.26 0.37, -73.55 194.52 80
8 02/09/2022 14:44:40 0.02, -75.30 0.66, -78.11 320.70 80
9 02/10/2022 14:21:21 0.02, -75.31 -0.45, -73.12 249.81 80
10 02/12/2022 02:43:02 -0.02, -75.32 -0.54, -77.73 273.87 80
